Weather observations for the past three days for
Dillingham, Dillingham Airport
Metric (Imperial)
Date Time (akdt) Wind (kph) Vis. (km) Weather Sky Cond. Temperature (ºC) Relative Humidity Wind Chill (°C) Heat Index (°C) Pressure Precipitation (cm)
Air Dwpt 6 hour altimeter (cm) sea level (mb) 1 hr 3 hr 6 hr
Max. Min.
21 08:56 S 9 16.09 Light Rain BKN013 OVC024 3.9 2.8 93% 2 75.39 1005.5 0.18
21 07:56 Vrbl 7 16.09 Light Rain BKN010 OVC015 3.9 3.3 96% 2 75.39 1005.4 0.25
21 06:56 S 26 14.48 Light Rain OVC004 5 4.4 96% 1 75.34 1004.8 0.3 0.64
21 05:56 S 35 G 43 16.09 Light Rain and Breezy OVC006 5.6 5 96% 1 75.34 1004.8 0.15
21 04:56 S 28 G 39 16.09 Light Rain OVC008 5.6 5 96% 1 75.39 1005.5 0.18
21 03:56 SE 24 G 39 14.48 Light Rain OVC008 5.6 4.4 5.6 5 92% 2 75.46 1006.3 0.2 0.38
21 02:56 SE 24 G 35 16.09 Light Rain OVC010 5 4.4 96% 1 75.51 1007.2 0.08
21 01:56 SE 28 G 37 16.09 Light Rain OVC010 5 3.9 93% 1 75.57 1007.9 0.08
21 00:56 SE 22 16.09 Light Rain OVC010 5 3.9 93% 1 75.64 1008.8 0.03 0.03
20 23:56 SE 24 G 33 16.09 Light Rain OVC012 5 3.9 93% 1 75.67 1009.2
20 22:56 SE 26 G 37 16.09 Overcast BKN012 OVC036 5 3.3 89% 1 75.69 1009.5
20 21:56 SE 20 16.09 Overcast BKN012 OVC034 5 3.3 9.4 5 89% 1 75.74 1010.1 0.05
20 20:56 SE 20 16.09 Overcast OVC010 5 3.3 89% 1 75.77 1010.6
20 19:56 SE 17 14.48 Light Rain OVC016 5 3.9 93% 2 75.84 1011.3 0.03
20 18:56 SE 19 16.09 Light Rain BKN012 OVC022 5 3.3 89% 2 75.87 1011.7 0.03 0.03
20 17:56 SE 22 G 35 16.09 Light Rain FEW025 OVC031 7.2 3.3 77% 4 75.87 1011.9
20 16:56 S 22 G 35 16.09 Mostly Cloudy BKN030 8.3 2.2 66% 5 75.87 1011.8
20 15:56 SE 20 16.09 Mostly Cloudy BKN038 8.9 1.1 9.4 3.9 58% 6 75.9 1012.2
20 14:56 SE 19 G 31 16.09 Overcast OVC034 9.4 1.7 59% 7 75.95 1012.7
20 13:56 SE 19 16.09 Overcast OVC040 8.9 2.2 63% 6 75.97 1013.3
20 12:56 E 15 16.09 Overcast OVC040 7.2 2.8 74% 5 76.02 1013.8
20 11:56 E 17 16.09 Overcast FEW013 BKN040 OVC120 6.1 2.2 76% 3 76.07 1014.4
20 10:56 E 11 16.09 Overcast SCT010 BKN035 OVC120 4.4 2.2 86% 2 76.1 1014.8
20 09:56 E 13 16.09 Overcast BKN010 OVC120 4.4 1.7 4.4 -0.6 83% 2 76.15 1015.5
20 08:56 NE 15 16.09 Mostly Cloudy BKN012 BKN100 3.3 2.2 93% 0 76.15 1015.7
20 07:56 E 9 16.09 Overcast OVC020 1.7 1.1 96% -1 76.17 1015.9
20 06:56 Calm 16.09 Partly Cloudy SCT021 0.6 0 96% 76.2 1016.2
20 05:56 SE 9 16.09 Overcast OVC023 -0.6 -1.1 96% -3 76.2 1016.3
20 04:56 Calm 16.09 A Few Clouds FEW021 -0.6 -1.7 92% 76.23 1016.4
20 03:56 Calm 16.09 Fair CLR -0.6 -1.1 5.6 -0.6 96% 76.25 1016.8
20 02:56 Vrbl 6 16.09 Fair CLR 0 -0.6 96% 76.25 1016.8
20 01:56 Vrbl 6 16.09 Fair CLR 0 -1.1 92% 76.25 1016.8
20 00:56 Vrbl 6 16.09 Fair CLR 1.1 -0.6 89% 76.23 1016.6
19 23:56 Calm 16.09 Fair CLR 1.7 0.6 93% 76.23 1016.4
19 22:56 Vrbl 9 16.09 Fair CLR 3.3 1.1 86% 1 76.17 1016.0
19 21:56 SW 7 16.09 Mostly Cloudy SCT032 BKN080 5.6 2.2 9.4 5.6 79% 4 76.15 1015.5 0.03
19 20:56 Vrbl 9 16.09 A Few Clouds FEW044 7.2 2.8 74% 6 76.15 1015.4
19 19:56 Vrbl 7 16.09 A Few Clouds FEW038 8.3 3.3 71% 7 76.1 1014.8
19 18:56 Vrbl 6 16.09 Light Rain SCT030 BKN038 8.3 5 80% 76.07 1014.5 0.03 0.03
19 16:56 S 19 G 26 16.09 A Few Clouds FEW038 8.9 5.6 80% 6 76.02 1014.0
19 15:56 S 26 16.09 Mostly Cloudy BKN038 7.2 5.6 7.8 4.4 90% 4 76.02 1013.8 0.05
19 14:56 S 17 16.09 Light Rain BKN030 6.1 5 93% 3 76.02 1014.0 0.05
19 13:56 S 17 16.09 Overcast SCT016 BKN022 OVC040 6.1 5 93% 3 76.02 1013.7
19 12:56 S 19 16.09 Mostly Cloudy BKN014 5.6 4.4 92% 2 75.97 1013.3
19 11:56 S 13 8.05 Light Rain Fog/Mist BKN014 5 3.9 93% 2 75.95 1012.9
19 10:56 Calm 16.09 Mostly Cloudy BKN012 5.6 3.9 89% 75.92 1012.4
19 09:56 Calm 16.09 Overcast OVC007 4.4 3.3 4.4 2.2 93% 75.9 1012.1
19 08:56 Calm 3.22 Fog/Mist OVC006 3.9 3.3 96% 75.84 1011.5
19 07:56 Calm 3.22 Fog/Mist OVC010 2.8 2.8 100% 75.82 1011.0
19 06:54 N 7 16.09 Overcast SCT007 SCT013 OVC021 2.8 2.2 96% 1 75.74 1010.1
19 05:56 N 9 1.61 Unknown Precip Fog/Mist OVC005 2.2 2.2 100% -0 75.69 1009.4
19 04:56 N 11 2.41 Unknown Precip Fog/Mist OVC009 2.8 2.2 96% 0 75.64 1008.8
19 03:56 N 15 2.82 Light Rain Fog/Mist OVC011 2.8 2.8 6.1 2.8 100% -1 75.59 1008.3
19 02:56 N 15 16.09 Overcast OVC007 3.9 2.8 93% 1 75.54 1007.5
19 01:56 N 17 16.09 Overcast FEW015 OVC031 3.9 2.8 93% 0 75.49 1006.6
19 00:56 N 19 16.09 Overcast OVC033 3.9 2.8 93% 0 75.41 1005.8
18 23:56 N 15 16.09 Overcast OVC033 4.4 2.8 89% 1 75.36 1005.0
18 22:56 N 15 16.09 Overcast OVC031 4.4 2.8 89% 1 75.31 1004.3
18 21:56 NE 9 16.09 Overcast BKN019 OVC032 6.1 3.3 6.7 5.6 82% 4 75.26 1003.6 0.08
18 20:56 NE 15 16.09 Mostly Cloudy FEW020 BKN050 6.1 3.9 86% 3 75.21 1003.0
18 19:56 E 15 16.09 Light Rain BKN020 5.6 3.9 89% 3 75.21 1003.0
18 18:56 NE 31 G 41 16.09 Overcast OVC020 6.7 4.4 85% 3 75.18 1002.8 0.03 0.08
18 17:56 E 22 G 31 16.09 Light Rain OVC018 6.1 4.4 89% 3 75.18 1002.6 0.05
18 16:56 NE 31 G 44 16.09 Light Rain OVC020 6.1 3.9 86% 2 75.18 1002.7
18 15:56 E 24 G 35 16.09 Light Rain OVC018 6.1 3.9 6.1 0.6 86% 2 75.23 1003.2 0.41
18 14:56 E 22 G 35 16.09 Light Rain OVC015 5 3.3 89% 1 75.26 1003.8 0.03
18 13:56 E 28 G 43 8.05 Light Rain Fog/Mist OVC012 3.3 2.8 97% -2 75.31 1004.5 0.13
18 12:56 E 33 G 48 8.05 Light Rain Fog/Mist and Breezy OVC010 3.3 2.2 93% -2 75.39 1005.4 0.15 0.25
18 11:56 E 31 G 37 16.09 Light Rain OVC006 3.3 2.2 93% -2 75.44 1006.2 0.03
18 10:56 NE 24 G 33 16.09 Light Rain OVC006 2.2 1.7 97% -3 75.49 1006.8 0.08
18 09:56 NE 20 4.02 Light Snow Fog/Mist OVC005 0.6 0 4.4 0.6 96% -4 75.59 1008.1 0.08 0.18
Date Time (akdt) Wind (kph) Vis. (km) Weather Sky Cond. Air Dwpt Max. Min. Relative Humidity Wind Chill (°C) Heat Index (°C) altimeter (cm) sea level (mb) 1 hr 3 hr 6 hr
6 hour
Temperature (ºC) Pressure Precipitation (cm)